When you browse on this site, cookies collect data to enhance your experience and personalize the content and advertising you see.
Visit our Privacy Policy to learn more. By continuing to use the site, you agree to this use of cookies and data.
  • In Italy
  • List of Countries
  • For 7 days
  • Water Temperature
  • Satellite Maps
  • Weather Map
  • Weather Widgets
  • user-avatar
    Login

    Hourly Weather Chien

    Today, 15 December, Saturday

    Time Temperature Precipitation Wind Pressure Humidity
    00:00 +23°C° 0 mm 0 mps 742 mmHg 80%
    01:00 +23°C° 0 mm 0 mps 742 mmHg 85%
    02:00 +23°C° 0 mm 0 mps 741 mmHg 89%
    03:00 +22°C° 0 mm 0 mps 741 mmHg 90%
    04:00 +22°C° 0 mm 0 mps 742 mmHg 92%
    05:00 +22°C° 0 mm 0 mps 742 mmHg 93%
    06:00 +23°C° 0 mm 0 mps 742 mmHg 86%
    07:00 +25°C° 0 mm 0 mps 743 mmHg 78%
    08:00 +27°C° 0 mm 0 mps 743 mmHg 71%
    09:00 +31°C° 0 mm 1 mps 743 mmHg 59%
    10:00 +34°C° 0 mm 1 mps 743 mmHg 48%
    11:00 +36°C° 0 mm 1 mps 743 mmHg 36%
    12:00 +36°C° 0 mm 1 mps 742 mmHg 32%
    13:00 +37°C° 0 mm 1 mps 741 mmHg 28%
    14:00 +38°C° 0 mm 2 mps 740 mmHg 24%
    15:00 +36°C° 0 mm 1 mps 740 mmHg 28%
    16:00 +34°C° 0 mm 1 mps 740 mmHg 32%
    17:00 +30°C° 0 mm 0 mps 740 mmHg 36%
    18:00 +31°C° 0 mm 1 mps 741 mmHg 40%
    19:00 +29°C° 0 mm 1 mps 741 mmHg 45%
    20:00 +28°C° 0 mm 1 mps 742 mmHg 50%
    21:00 +27°C° 0 mm 1 mps 742 mmHg 59%
    22:00 +27°C° 0 mm 1 mps 742 mmHg 68%
    23:00 +26°C° 0 mm 1 mps 742 mmHg 77%

    Tomorrow, 16 December, Sunday

    Time Temperature Precipitation Wind Pressure Humidity
    00:00 +26°C° 0 mm 1 mps 742 mmHg 80%
    01:00 +26°C° 0 mm 1 mps 742 mmHg 83%
    02:00 +26°C° 0 mm 1 mps 741 mmHg 86%
    03:00 +26°C° 0 mm 1 mps 741 mmHg 86%
    04:00 +26°C° 0 mm 1 mps 741 mmHg 85%
    05:00 +26°C° 0 mm 1 mps 741 mmHg 84%
    06:00 +27°C° 0 mm 1 mps 742 mmHg 79%
    07:00 +28°C° 0 mm 1 mps 742 mmHg 74%
    08:00 +29°C° 0 mm 1 mps 743 mmHg 70%
    09:00 +31°C° 0 mm 1 mps 742 mmHg 60%
    10:00 +34°C° 0 mm 1 mps 742 mmHg 50%
    11:00 +34°C° 0 mm 0 mps 742 mmHg 41%
    12:00 +35°C° 0 mm 0 mps 741 mmHg 37%
    13:00 +36°C° 0 mm 0 mps 741 mmHg 33%
    14:00 +36°C° 0 mm 0 mps 740 mmHg 30%
    15:00 +34°C° 0 mm 0 mps 740 mmHg 34%
    16:00 +34°C° 0 mm 1 mps 740 mmHg 39%
    17:00 +32°C° 0 mm 1 mps 740 mmHg 43%
    18:00 +31°C° 0 mm 1 mps 740 mmHg 51%
    19:00 +30°C° 0 mm 1 mps 741 mmHg 59%
    20:00 +28°C° 0 mm 1 mps 742 mmHg 66%
    21:00 +28°C° 0 mm 1 mps 742 mmHg 72%
    22:00 +27°C° 0 mm 1 mps 742 mmHg 78%
    23:00 +27°C° 0 mm 1 mps 742 mmHg 83%

    Day after tomorrow, 17 December, Monday

    Time Temperature Precipitation Wind Pressure Humidity
    00:00 +26°C° 0 mm 1 mps 741 mmHg 86%
    01:00 +26°C° 0 mm 1 mps 741 mmHg 90%
    02:00 +23°C° 0 mm 0 mps 740 mmHg 93%
    03:00 +23°C° 0 mm 0 mps 740 mmHg 94%
    04:00 +25°C° 0 mm 1 mps 740 mmHg 95%
    05:00 +24°C° 0 mm 1 mps 740 mmHg 96%
    06:00 +26°C° 0 mm 1 mps 741 mmHg 89%
    07:00 +27°C° 0 mm 1 mps 741 mmHg 81%
    08:00 +29°C° 0 mm 1 mps 742 mmHg 73%
    09:00 +31°C° 0 mm 1 mps 742 mmHg 64%
    10:00 +33°C° 0 mm 1 mps 742 mmHg 55%
    11:00 +35°C° 0 mm 1 mps 741 mmHg 47%
    12:00 +35°C° 0 mm 1 mps 741 mmHg 44%
    13:00 +36°C° 0 mm 1 mps 740 mmHg 42%
    14:00 +34°C° 0 mm 0 mps 739 mmHg 40%
    15:00 +34°C° 0.1 mm 1 mps 739 mmHg 43%
    16:00 +33°C° 0.1 mm 1 mps 739 mmHg 47%
    17:00 +32°C° 0.1 mm 1 mps 739 mmHg 51%
    18:00 +30°C° 0 mm 1 mps 740 mmHg 57%
    19:00 +29°C° 0 mm 1 mps 741 mmHg 64%
    20:00 +28°C° 0 mm 1 mps 741 mmHg 70%
    21:00 +27°C° 0 mm 1 mps 741 mmHg 74%
    22:00 +27°C° 0 mm 1 mps 742 mmHg 79%
    23:00 +26°C° 0 mm 1 mps 742 mmHg 83%

    18 December, Tuesday

    Time Temperature Precipitation Wind Pressure Humidity
    00:00 +26°C° 0 mm 1 mps 741 mmHg 85%
    01:00 +25°C° 0 mm 1 mps 741 mmHg 88%
    02:00 +25°C° 0 mm 1 mps 740 mmHg 90%
    03:00 +25°C° 0 mm 1 mps 741 mmHg 92%
    04:00 +24°C° 0 mm 1 mps 741 mmHg 93%
    05:00 +24°C° 0 mm 1 mps 741 mmHg 95%
    06:00 +26°C° 0 mm 1 mps 741 mmHg 87%
    07:00 +27°C° 0 mm 1 mps 742 mmHg 80%
    08:00 +29°C° 0 mm 1 mps 743 mmHg 72%
    09:00 +30°C° 0 mm 1 mps 742 mmHg 65%
    10:00 +32°C° 0 mm 1 mps 742 mmHg 57%
    11:00 +34°C° 0 mm 1 mps 741 mmHg 49%
    12:00 +34°C° 0.1 mm 1 mps 741 mmHg 48%
    13:00 +35°C° 0.1 mm 1 mps 740 mmHg 46%
    14:00 +35°C° 0.1 mm 1 mps 739 mmHg 44%
    15:00 +34°C° 0.1 mm 1 mps 739 mmHg 49%
    16:00 +32°C° 0.1 mm 1 mps 739 mmHg 54%
    17:00 +31°C° 0.1 mm 1 mps 739 mmHg 58%
    18:00 +30°C° 0.1 mm 2 mps 740 mmHg 66%
    19:00 +28°C° 0.1 mm 2 mps 741 mmHg 73%
    20:00 +27°C° 0.1 mm 2 mps 741 mmHg 81%
    21:00 +27°C° 0 mm 2 mps 741 mmHg 84%
    22:00 +26°C° 0 mm 1 mps 741 mmHg 87%
    23:00 +26°C° 0 mm 1 mps 741 mmHg 90%

    19 December, Wednesday

    Time Temperature Precipitation Wind Pressure Humidity
    00:00 +25°C° 0.3 mm 1 mps 741 mmHg 91%
    01:00 +25°C° 0.3 mm 1 mps 740 mmHg 93%
    02:00 +25°C° 0.3 mm 1 mps 740 mmHg 95%
    03:00 +24°C° 0 mm 1 mps 740 mmHg 95%
    04:00 +24°C° 0 mm 1 mps 740 mmHg 96%
    05:00 +24°C° 0 mm 1 mps 741 mmHg 96%
    06:00 +26°C° 0 mm 1 mps 741 mmHg 89%
    07:00 +27°C° 0 mm 1 mps 742 mmHg 82%
    08:00 +28°C° 0 mm 1 mps 742 mmHg 74%
    09:00 +30°C° 0 mm 1 mps 742 mmHg 66%
    10:00 +32°C° 0 mm 1 mps 741 mmHg 58%
    11:00 +34°C° 0 mm 1 mps 741 mmHg 49%
    12:00 +34°C° 0.1 mm 1 mps 740 mmHg 49%
    13:00 +34°C° 0.1 mm 1 mps 739 mmHg 48%
    14:00 +34°C° 0.1 mm 1 mps 738 mmHg 47%
    15:00 +33°C° 0.4 mm 1 mps 739 mmHg 53%
    16:00 +32°C° 0.4 mm 1 mps 739 mmHg 58%
    17:00 +31°C° 0.4 mm 2 mps 739 mmHg 63%
    18:00 +29°C° 0.1 mm 2 mps 739 mmHg 70%
    19:00 +28°C° 0.1 mm 2 mps 740 mmHg 76%
    20:00 +27°C° 0.1 mm 2 mps 740 mmHg 83%
    21:00 +26°C° 0 mm 1 mps 740 mmHg 85%
    22:00 +26°C° 0 mm 1 mps 740 mmHg 88%
    23:00 +25°C° 0 mm 1 mps 740 mmHg 91%

    20 December, Thursday

    Time Temperature Precipitation Wind Pressure Humidity
    00:00 +25°C° 0 mm 1 mps 740 mmHg 92%
    01:00 +25°C° 0 mm 1 mps 740 mmHg 94%
    02:00 +25°C° 0 mm 1 mps 739 mmHg 95%
    03:00 +25°C° 0 mm 1 mps 740 mmHg 95%
    04:00 +23°C° 0 mm 0 mps 740 mmHg 96%
    05:00 +22°C° 0 mm 0 mps 740 mmHg 96%
    06:00 +26°C° 0.1 mm 1 mps 741 mmHg 89%
    07:00 +27°C° 0.1 mm 1 mps 741 mmHg 82%
    08:00 +29°C° 0.1 mm 1 mps 741 mmHg 75%
    09:00 +31°C° 0.1 mm 1 mps 741 mmHg 67%
    10:00 +32°C° 0.1 mm 1 mps 741 mmHg 58%
    11:00 +34°C° 0.1 mm 1 mps 740 mmHg 50%
    12:00 +34°C° 0.1 mm 1 mps 740 mmHg 49%
    13:00 +34°C° 0.1 mm 1 mps 739 mmHg 49%
    14:00 +32°C° 0.1 mm 0 mps 739 mmHg 48%
    15:00 +33°C° 0.2 mm 1 mps 739 mmHg 52%
    16:00 +32°C° 0.2 mm 1 mps 739 mmHg 57%
    17:00 +31°C° 0.2 mm 1 mps 739 mmHg 61%
    18:00 +29°C° 0.1 mm 1 mps 740 mmHg 69%
    19:00 +28°C° 0.1 mm 1 mps 740 mmHg 76%
    20:00 +27°C° 0.1 mm 2 mps 741 mmHg 84%
    21:00 +26°C° 0 mm 1 mps 741 mmHg 86%
    22:00 +26°C° 0 mm 1 mps 740 mmHg 89%
    23:00 +25°C° 0 mm 1 mps 740 mmHg 92%
    Show more